Back to catalog

OPS 5721 DEB

AliveSSO
NORAD 9420·DEBRIS·🇺🇸 United States

Launched Sep 11, 1976 from Vandenberg Space Force Base

Loading…

Next Passes (next 24 hours)

TLE

StaleSource: Space-Track

Epoch: Jun 10, 1977, 23:39 UTC

1 09420U 76091  C 77161.98577327  .00000180 +00000-0 +87146-4 0  9997
2 09420 098.7028 072.5618 0021526 119.9111 240.4776 14.18392194038642

Track OPS 5721 DEB in real time with AllMySat

Download on the App Store